Tracking 27111 objects as of 28-Mar-2023
HD Live streaming from Space Station
objects crossing your sky now

STARLINK-5272

Track STARLINK-5272 now!
10-day predictions
STARLINK-5272 is classified as:


NORAD ID: 55298
Int'l Code: 2023-010AF
Perigee: 363.9 km
Apogee: 368.5 km
Inclination: 70.0 °
Period: 91.7 minutes
Semi major axis: 6737 km
RCS: Unknown
Launch date: January 19, 2023
Source: United States (US)
Launch site: AIR FORCE WESTERN TEST RANGE (AFWTR)
Your satellite tracking list
Your tracking list is empty




NASA's NSSDC Master Catalog

Two Line Element Set (TLE):
1 55298U 23010AF  23086.84463818 -.00001333  00000-0 -93147-5 0  9997
2 55298  69.9975 239.6566 0003417 270.8419  89.2386 15.69940273 12262
Source of the keplerian elements: AFSPC